GW6804 Weather Reports


time (UTC)temp
C
wind
direction
speed
KPH
gust
KPH
rain 1hr
cm
rain 24hr
cm
rain mn
cm
humidity
%
barometer
mb
20260504223537 20 225 3.2 14.5 0.00 0.00 0.00 33 1005.6
20260504222517 21 225 6.4 14.5 0.00 0.00 0.00 32 1005.7
20260504221518 21 248 3.2 11.3 0.00 0.00 0.00 32 1005.7
20260504220517 21 203 3.2 8.0 0.00 0.00 0.00 32 1005.7
20260504215517 21 180 8.0 20.9 0.00 0.00 0.00 30 1005.8
20260504214517 21 248 6.4 17.7 0.00 0.00 0.00 31 1005.7
20260504213516 21 225 3.2 9.7 0.00 0.00 0.00 30 1005.7
20260504212517 21 203 11.3 22.5 0.00 0.00 0.00 31 1005.7
20260504211517 21 270 6.4 27.4 0.00 0.00 0.00 30 1005.7
20260504210517 22 225 4.8 12.9 0.00 0.00 0.00 31 1005.8
20260504205517 22 203 6.4 12.9 0.00 0.00 0.00 29 1005.7
20260504204517 22 225 6.4 19.3 0.00 0.00 0.00 30 1005.7
20260504203517 22 203 4.8 11.3 0.00 0.00 0.00 30 1005.8
20260504202517 22 225 8.0 25.7 0.00 0.00 0.00 30 1005.7
20260504201517 22 68 4.8 16.1 0.00 0.00 0.00 31 1005.7
20260504200557 21 248 6.4 17.7 0.00 0.00 0.00 30 1005.7
20260504195537 21 248 4.8 17.7 0.00 0.00 0.00 31 1005.8
20260504194517 21 180 4.8 12.9 0.00 0.00 0.00 30 1005.9
20260504193518 21 225 6.4 14.5 0.00 0.00 0.00 30 1005.9
20260504192517 21 225 9.7 24.1 0.00 0.00 0.00 28 1005.7
20260504191517 22 203 6.4 19.3 0.00 0.00 0.00 28 1006.0
20260504190517 22 203 6.4 16.1 0.00 0.00 0.00 28 1006.1
20260504185517 22 225 8.0 35.4 0.00 0.00 0.00 28 1006.2
20260504184517 22 225 9.7 27.4 0.00 0.00 0.00 28 1006.2
20260504183517 22 270 8.0 27.4 0.00 0.00 0.00 28 1006.6
20260504182557 22 248 6.4 19.3 0.00 0.00 0.00 29 1006.4
20260504181517 21 225 9.7 22.5 0.00 0.00 0.00 28 1006.5
20260504180517 22 225 8.0 22.5 0.00 0.00 0.00 28 1006.4
20260504175517 22 248 6.4 14.5 0.00 0.00 0.00 29 1006.5
20260504174517 21 203 6.4 20.9 0.00 0.00 0.00 29 1006.5
20260504173516 21 270 8.0 24.1 0.00 0.00 0.00 28 1006.9
20260504172517 21 270 8.0 17.7 0.00 0.00 0.00 29 1007.0
20260504171537 21 248 8.0 22.5 0.00 0.00 0.00 28 1006.9
20260504170517 20 225 11.3 22.5 0.00 0.00 0.00 30 1007.0
20260504150537 18 203 11.3 29.0 0.00 0.00 0.00 35 1008.2
20260504140517 16 225 6.4 14.5 0.00 0.00 0.00 40 1008.7
20260504130517 13 203 8.0 24.1 0.00 0.00 0.00 46 1009.4
20260504110516 8 203 6.4 12.9 0.00 0.00 0.00 58 1009.8
20260504100516 5 23 1.6 4.8 0.00 0.00 0.00 80 1009.9
20260504081516 5 45 1.6 3.2 0.00 0.00 0.00 80 1009.9
20260504080516 5 0.0 3.2 0.00 0.00 0.00 80 1009.8
20260504050518 1 0.0 0.0 0.00 0.00 0.00 87 1009.7
20260504045559 1 0.0 0.0 0.00 0.00 0.00 87 1009.7
20260504044538 1 0.0 0.0 0.00 0.00 0.00 86 1009.7
20260504043538 1 0.0 0.0 0.00 0.00 0.00 86 1009.7
20260504042518 1 0.0 0.0 0.00 0.00 0.00 85 1009.7
20260504041518 1 0.0 0.0 0.00 0.00 0.00 85 1009.6
20260504040518 1 0.0 0.0 0.00 0.00 0.00 84 1009.5
20260504035516 1 0.0 0.0 0.00 0.00 0.00 83 1009.5
20260504034516 1 0.0 0.0 0.00 0.00 0.00 82 1009.3
20260504033536 1 0.0 0.0 0.00 0.00 0.00 82 1009.3
20260504032516 1 0.0 0.0 0.00 0.00 0.00 81 1009.3
20260504031516 2 0.0 0.0 0.00 0.00 0.00 80 1009.2
20260504030516 2 0.0 0.0 0.00 0.00 0.00 79 1009.2
20260504025516 2 0.0 0.0 0.00 0.00 0.00 79 1009.1
20260504024537 2 0.0 0.0 0.00 0.00 0.00 78 1009.1
20260504023517 2 0.0 0.0 0.00 0.00 0.00 78 1009.1
20260504022516 2 0.0 0.0 0.00 0.00 0.00 77 1009.0
20260504021516 3 0.0 0.0 0.00 0.00 0.00 76 1009.0
20260504020516 3 0.0 0.0 0.00 0.00 0.00 74 1009.0
20260504015516 3 0.0 0.0 0.00 0.00 0.00 72 1009.0
20260504014516 3 0.0 0.0 0.00 0.00 0.00 71 1008.9
20260504013516 3 0.0 0.0 0.00 0.00 0.00 70 1008.8
20260504012516 4 0.0 0.0 0.00 0.00 0.00 68 1008.7
20260504011517 5 0.0 0.0 0.00 0.00 0.00 67 1008.6
20260504010516 5 0.0 0.0 0.00 0.00 0.00 66 1008.5
20260504005516 5 0.0 0.0 0.00 0.00 0.00 64 1008.4
20260504004516 5 0.0 0.0 0.00 0.00 0.00 61 1008.3
20260504003516 6 0.0 1.6 0.00 0.00 0.00 60 1008.1
20260504002516 6 0.0 0.0 0.00 0.00 0.00 57 1008.1
20260504001516 7 0.0 0.0 0.00 0.00 0.00 55 1007.9
20260504000536 7 0.0 0.0 0.00 0.00 0.00 54 1007.9
20260503235516 8 0.0 1.6 0.00 0.00 0.00 51 1007.9
20260503234516 8 23 1.6 4.8 0.00 0.00 0.00 48 1007.7
20260503233516 9 315 1.6 6.4 0.00 0.00 0.00 45 1007.6
20260503232516 9 68 1.6 6.4 0.00 0.00 0.00 46 1007.6
20260503231516 10 270 3.2 17.7 0.00 0.00 0.00 44 1007.5
20260503230557 10 0 4.8 14.5 0.00 0.00 0.00 42 1007.4
20260503225516 10 45 4.8 19.3 0.00 0.00 0.00 42 1007.4
20260503224516 10 315 8.0 20.9 0.00 0.00 0.00 42 1007.1